| time (UTC) | temp F | wind direction | speed MPH | gust MPH | rain 1hr in | rain 24hr in | rain mn in | humidity % | barometer mb |
| 20260901142113 | 82 | 329 | 3.0 | 7.0 | 0.00 | 0.06 | 0.03 | 28 | 1020.8 |
| 20260901141112 | 80 | 327 | 10.0 | 12.0 | 0.00 | 0.06 | 0.03 | 30 | 1020.9 |
| 20260901140112 | 80 | 257 | 5.0 | 10.0 | 0.00 | 0.06 | 0.03 | 28 | 1020.9 |
| 20260901135113 | 81 | 12 | 4.0 | 10.0 | 0.00 | 0.06 | 0.03 | 29 | 1020.9 |
| 20260901134112 | 80 | 338 | 5.0 | 6.0 | 0.00 | 0.06 | 0.03 | 28 | 1020.9 |
| 20260901133112 | 80 | 331 | 4.0 | 9.0 | 0.00 | 0.06 | 0.03 | 30 | 1021.0 |
| 20260901132112 | 80 | 355 | 9.0 | 14.0 | 0.00 | 0.06 | 0.03 | 28 | 1021.1 |
| 20260901131112 | 81 | 314 | 10.0 | 14.0 | 0.00 | 0.06 | 0.03 | 29 | 1021.2 |
| 20260901130112 | 80 | 327 | 7.0 | 15.0 | 0.00 | 0.06 | 0.03 | 29 | 1021.1 |
| 20260901125112 | 80 | 337 | 6.0 | 12.0 | 0.00 | 0.06 | 0.03 | 30 | 1021.0 |
| 20260901124112 | 80 | 251 | 5.0 | 12.0 | 0.00 | 0.06 | 0.03 | 30 | 1021.3 |
| 20260901123112 | 80 | 238 | 12.0 | 16.0 | 0.00 | 0.06 | 0.03 | 29 | 1021.2 |
| 20260901122112 | 80 | 298 | 6.0 | 16.0 | 0.00 | 0.06 | 0.03 | 29 | 1021.4 |
| 20260901121112 | 81 | 274 | 8.0 | 14.0 | 0.00 | 0.06 | 0.03 | 29 | 1021.4 |
| 20260901120112 | 82 | 348 | 8.0 | 17.0 | 0.00 | 0.06 | 0.03 | 29 | 1021.3 |
| 20260901115112 | 81 | 305 | 9.0 | 16.0 | 0.00 | 0.06 | 0.03 | 28 | 1021.6 |
| 20260901114112 | 81 | 257 | 11.0 | 17.0 | 0.00 | 0.06 | 0.03 | 29 | 1021.5 |
| 20260901113112 | 82 | 300 | 9.0 | 17.0 | 0.00 | 0.06 | 0.03 | 28 | 1021.6 |
| 20260901112112 | 80 | 336 | 10.0 | 16.0 | 0.00 | 0.06 | 0.03 | 31 | 1021.5 |
| 20260901111112 | 79 | 308 | 13.0 | 18.0 | 0.00 | 0.06 | 0.03 | 33 | 1021.6 |
| 20260901110112 | 78 | 306 | 8.0 | 13.0 | 0.00 | 0.06 | 0.03 | 34 | 1021.7 |
| 20260901105112 | 78 | 296 | 10.0 | 18.0 | 0.00 | 0.06 | 0.03 | 33 | 1021.8 |
| 20260901104112 | 78 | 349 | 12.0 | 17.0 | 0.00 | 0.06 | 0.03 | 32 | 1021.8 |
| 20260901103112 | 77 | 300 | 6.0 | 18.0 | 0.00 | 0.06 | 0.03 | 33 | 1021.8 |
| 20260901102112 | 77 | 320 | 10.0 | 20.0 | 0.00 | 0.06 | 0.03 | 35 | 1021.8 |
| 20260901101112 | 76 | 306 | 12.0 | 16.0 | 0.00 | 0.06 | 0.03 | 38 | 1021.9 |
| 20260901100112 | 75 | 330 | 4.0 | 7.0 | 0.00 | 0.06 | 0.03 | 41 | 1021.9 |
| 20260901095112 | 76 | 238 | 3.0 | 7.0 | 0.00 | 0.06 | 0.03 | 43 | 1022.0 |
| 20260901094112 | 75 | 316 | 0.0 | 4.0 | 0.00 | 0.06 | 0.03 | 43 | 1022.3 |
| 20260901093112 | 75 | 288 | 4.0 | 5.0 | 0.00 | 0.06 | 0.03 | 42 | 1022.3 |
| 20260901092111 | 76 | 277 | 5.0 | 8.0 | 0.00 | 0.06 | 0.03 | 41 | 1022.3 |
| 20260901091111 | 76 | 355 | 5.0 | 11.0 | 0.00 | 0.06 | 0.03 | 42 | 1022.3 |
| 20260901090111 | 76 | 328 | 10.0 | 13.0 | 0.00 | 0.06 | 0.03 | 45 | 1022.3 |
| 20260901085111 | 76 | 263 | 5.0 | 9.0 | 0.00 | 0.06 | 0.03 | 45 | 1022.4 |
| 20260901084111 | 75 | 257 | 10.0 | 12.0 | 0.00 | 0.06 | 0.03 | 46 | 1022.4 |
| 20260901083111 | 75 | 296 | 6.0 | 11.0 | 0.00 | 0.06 | 0.03 | 47 | 1022.4 |
| 20260901082111 | 75 | 286 | 7.0 | 12.0 | 0.00 | 0.06 | 0.03 | 47 | 1022.3 |
| 20260901081111 | 74 | 277 | 6.0 | 13.0 | 0.00 | 0.06 | 0.03 | 48 | 1022.4 |
| 20260901080111 | 74 | 5 | 4.0 | 11.0 | 0.00 | 0.06 | 0.03 | 48 | 1022.4 |
| 20260901075111 | 73 | 317 | 9.0 | 13.0 | 0.00 | 0.06 | 0.03 | 47 | 1022.2 |
| 20260901074111 | 73 | 257 | 6.0 | 9.0 | 0.00 | 0.06 | 0.03 | 50 | 1022.2 |
| 20260901073111 | 72 | 295 | 5.0 | 14.0 | 0.00 | 0.06 | 0.03 | 51 | 1022.2 |
| 20260901072111 | 71 | 283 | 6.0 | 11.0 | 0.00 | 0.06 | 0.03 | 53 | 1022.0 |
| 20260901071111 | 70 | 301 | 6.0 | 10.0 | 0.00 | 0.06 | 0.03 | 54 | 1021.9 |
| 20260901070111 | 70 | 238 | 5.0 | 15.0 | 0.00 | 0.06 | 0.03 | 54 | 1021.9 |
| 20260901065111 | 69 | 263 | 3.0 | 11.0 | 0.00 | 0.06 | 0.03 | 57 | 1021.8 |
| 20260901064111 | 69 | 266 | 5.0 | 12.0 | 0.00 | 0.06 | 0.03 | 58 | 1021.7 |
| 20260901063111 | 68 | 245 | 10.0 | 14.0 | 0.00 | 0.06 | 0.03 | 59 | 1021.6 |
| 20260901062111 | 67 | 263 | 8.0 | 10.0 | 0.00 | 0.06 | 0.03 | 60 | 1021.6 |
| 20260901061111 | 66 | 259 | 5.0 | 8.0 | 0.00 | 0.06 | 0.03 | 61 | 1021.5 |
| 20260901060111 | 65 | 288 | 4.0 | 10.0 | 0.00 | 0.06 | 0.03 | 62 | 1021.4 |
| 20260901055111 | 65 | 286 | 5.0 | 10.0 | 0.00 | 0.06 | 0.03 | 64 | 1021.5 |
| 20260901054111 | 64 | 292 | 5.0 | 9.0 | 0.00 | 0.06 | 0.03 | 65 | 1021.3 |
| 20260901053111 | 63 | 286 | 5.0 | 11.0 | 0.00 | 0.06 | 0.03 | 67 | 1021.2 |
| 20260901052111 | 62 | 288 | 5.0 | 11.0 | 0.00 | 0.06 | 0.03 | 70 | 1021.1 |
| 20260901051111 | 61 | 296 | 8.0 | 12.0 | 0.00 | 0.06 | 0.03 | 75 | 1020.9 |
| 20260901050111 | 60 | 300 | 6.0 | 11.0 | 0.00 | 0.06 | 0.03 | 79 | 1020.9 |
| 20260901045111 | 60 | 325 | 8.0 | 11.0 | 0.00 | 0.06 | 0.03 | 79 | 1020.8 |
| 20260901044111 | 60 | 306 | 7.0 | 10.0 | 0.00 | 0.06 | 0.03 | 79 | 1020.9 |
| 20260901043111 | 59 | 298 | 8.0 | 10.0 | 0.00 | 0.06 | 0.03 | 79 | 1020.9 |
| 20260901042110 | 59 | 292 | 4.0 | 9.0 | 0.01 | 0.06 | 0.03 | 78 | 1020.7 |
| 20260901041111 | 59 | 275 | 3.0 | 4.0 | 0.01 | 0.06 | 0.03 | 77 | 1020.7 |
| 20260901040110 | 59 | 172 | 3.0 | 5.0 | 0.01 | 0.06 | 0.03 | 77 | 1020.7 |
| 20260901035110 | 59 | 159 | 3.0 | 5.0 | 0.01 | 0.06 | 0.03 | 77 | 1020.4 |
| 20260901034110 | 59 | 136 | 2.0 | 3.0 | 0.01 | 0.06 | 0.03 | 77 | 1020.3 |
| 20260901033110 | 59 | 159 | 4.0 | 6.0 | 0.01 | 0.06 | 0.03 | 76 | 1020.3 |
| 20260901032110 | 59 | 176 | 4.0 | 5.0 | 0.00 | 0.05 | 0.02 | 76 | 1020.2 |
| 20260901031110 | 59 | 299 | 2.0 | 3.0 | 0.00 | 0.05 | 0.02 | 76 | 1020.2 |
| 20260901030110 | 59 | 300 | 0.0 | 1.0 | 0.00 | 0.05 | 0.02 | 76 | 1020.1 |
| 20260901025110 | 59 | 300 | 2.0 | 3.0 | 0.00 | 0.05 | 0.02 | 76 | 1020.1 |
| 20260901024110 | 59 | 351 | 1.0 | 3.0 | 0.00 | 0.05 | 0.02 | 75 | 1020.2 |
| 20260901023110 | 59 | 285 | 0.0 | 7.0 | 0.00 | 0.05 | 0.02 | 74 | 1019.9 |
| 20260901022110 | 59 | 105 | 0.0 | 0.0 | 0.00 | 0.05 | 0.02 | 74 | 1019.9 |
| 20260901021110 | 59 | 105 | 0.0 | 0.0 | 0.00 | 0.05 | 0.02 | 74 | 1019.7 |
| 20260901020110 | 59 | 105 | 0.0 | 0.0 | 0.00 | 0.05 | 0.02 | 72 | 1019.8 |
| 20260901015110 | 59 | 105 | 0.0 | 0.0 | 0.00 | 0.05 | 0.02 | 72 | 1019.8 |
| 20260901014110 | 60 | 105 | 0.0 | 0.0 | 0.00 | 0.05 | 0.02 | 71 | 1019.8 |
| 20260901013110 | 60 | 105 | 0.0 | 0.0 | 0.00 | 0.05 | 0.02 | 71 | 1019.6 |
| 20260901012110 | 60 | 105 | 0.0 | 0.0 | 0.00 | 0.05 | 0.02 | 71 | 1019.6 |
| 20260901011110 | 60 | 105 | 0.0 | 0.0 | 0.00 | 0.05 | 0.02 | 70 | 1019.6 |
| 20260901005113 | 61 | 105 | 0.0 | 0.0 | 0.00 | 0.05 | 0.02 | 69 | 1019.6 |
| 20260901004113 | 62 | 105 | 0.0 | 0.0 | 0.00 | 0.05 | 0.02 | 69 | 1019.7 |
| 20260901003113 | 62 | 105 | 0.0 | 0.0 | 0.00 | 0.05 | 0.02 | 70 | 1019.7 |
| 20260901002113 | 63 | 105 | 2.0 | 3.0 | 0.00 | 0.05 | 0.02 | 69 | 1019.7 |
| 20260901001113 | 63 | 127 | 3.0 | 3.0 | 0.00 | 0.05 | 0.02 | 69 | 1019.7 |
| 20260901000113 | 63 | 173 | 3.0 | 3.0 | 0.00 | 0.05 | 0.02 | 69 | 1019.8 |
| 20260831235113 | 64 | 213 | 0.0 | 2.0 | 0.00 | 0.05 | 0.02 | 69 | 1019.7 |
| 20260831234113 | 64 | 213 | 0.0 | 0.0 | 0.00 | 0.05 | 0.02 | 69 | 1019.9 |
| 20260831233113 | 64 | 213 | 0.0 | 3.0 | 0.00 | 0.05 | 0.02 | 68 | 1019.9 |
| 20260831232113 | 64 | 213 | 0.0 | 0.0 | 0.02 | 0.05 | 0.02 | 68 | 1020.2 |
| 20260831231112 | 64 | 213 | 0.0 | 0.0 | 0.02 | 0.05 | 0.02 | 68 | 1020.2 |
| 20260831230113 | 64 | 214 | 1.0 | 5.0 | 0.02 | 0.05 | 0.02 | 68 | 1020.3 |
| 20260831225112 | 65 | 218 | 4.0 | 5.0 | 0.02 | 0.05 | 0.02 | 67 | 1020.5 |
| 20260831224112 | 65 | 202 | 4.0 | 6.0 | 0.03 | 0.05 | 0.02 | 66 | 1020.5 |
| 20260831223112 | 65 | 196 | 5.0 | 7.0 | 0.04 | 0.05 | 0.02 | 66 | 1020.6 |
| 20260831222112 | 66 | 256 | 1.0 | 6.0 | 0.03 | 0.03 | 0.01 | 65 | 1020.6 |
| 20260831221112 | 66 | 205 | 0.0 | 0.0 | 0.03 | 0.03 | 0.01 | 65 | 1020.7 |
| 20260831220112 | 66 | 306 | 1.0 | 2.0 | 0.03 | 0.03 | 0.01 | 65 | 1020.9 |
| 20260831215112 | 67 | 277 | 1.0 | 2.0 | 0.02 | 0.02 | 0.02 | 62 | 1020.7 |
| 20260831214112 | 67 | 273 | 4.0 | 9.0 | 0.02 | 0.02 | 0.02 | 61 | 1020.5 |
| 20260831213112 | 68 | 264 | 9.0 | 12.0 | 0.01 | 0.01 | 0.01 | 59 | 1020.6 |
| 20260831212112 | 69 | 286 | 12.0 | 16.0 | 0.00 | 0.00 | 0.00 | 56 | 1020.5 |
| 20260831211112 | 71 | 282 | 11.0 | 19.0 | 0.00 | 0.00 | 0.00 | 51 | 1020.4 |
| 20260831210112 | 72 | 263 | 7.0 | 10.0 | 0.00 | 0.00 | 0.00 | 49 | 1020.1 |
| 20260831205112 | 72 | 274 | 4.0 | 8.0 | 0.00 | 0.00 | 0.00 | 45 | 1019.3 |
| 20260831204112 | 71 | 311 | 5.0 | 7.0 | 0.00 | 0.00 | 0.00 | 44 | 1018.9 |
| 20260831203112 | 71 | 333 | 3.0 | 4.0 | 0.00 | 0.00 | 0.00 | 43 | 1018.5 |
| 20260831202112 | 72 | 351 | 2.0 | 4.0 | 0.00 | 0.00 | 0.00 | 44 | 1017.9 |
| 20260831201112 | 72 | 309 | 1.0 | 2.0 | 0.00 | 0.00 | 0.00 | 45 | 1017.8 |
| 20260831200112 | 72 | 309 | 0.0 | 2.0 | 0.00 | 0.00 | 0.00 | 44 | 1017.4 |
| 20260831195112 | 72 | 318 | 3.0 | 4.0 | 0.00 | 0.00 | 0.00 | 41 | 1017.1 |
| 20260831194112 | 71 | 313 | 4.0 | 6.0 | 0.00 | 0.00 | 0.00 | 43 | 1017.0 |
| 20260831193112 | 72 | 281 | 4.0 | 7.0 | 0.00 | 0.00 | 0.00 | 42 | 1016.9 |
| 20260831192112 | 72 | 294 | 4.0 | 7.0 | 0.00 | 0.00 | 0.00 | 43 | 1016.6 |
| 20260831191112 | 72 | 317 | 6.0 | 6.0 | 0.00 | 0.00 | 0.00 | 43 | 1016.3 |
| 20260831190112 | 73 | 317 | 1.0 | 4.0 | 0.00 | 0.00 | 0.00 | 43 | 1016.3 |
| 20260831185112 | 73 | 313 | 0.0 | 1.0 | 0.00 | 0.00 | 0.00 | 41 | 1016.4 |
| 20260831184112 | 74 | 313 | 1.0 | 1.0 | 0.00 | 0.00 | 0.00 | 41 | 1016.4 |
| 20260831183112 | 74 | 313 | 0.0 | 2.0 | 0.00 | 0.00 | 0.00 | 39 | 1016.1 |
| 20260831182112 | 75 | 313 | 2.0 | 2.0 | 0.00 | 0.00 | 0.00 | 39 | 1016.0 |
| 20260831181112 | 76 | 313 | 0.0 | 2.0 | 0.00 | 0.00 | 0.00 | 37 | 1016.0 |
| 20260831180112 | 76 | 313 | 1.0 | 2.0 | 0.00 | 0.00 | 0.00 | 36 | 1015.8 |
| 20260831175112 | 77 | 313 | 1.0 | 2.0 | 0.00 | 0.00 | 0.00 | 34 | 1015.6 |
| 20260831174112 | 78 | 313 | 0.0 | 3.0 | 0.00 | 0.00 | 0.00 | 33 | 1015.6 |
| 20260831173112 | 78 | 290 | 4.0 | 7.0 | 0.00 | 0.00 | 0.00 | 33 | 1015.7 |
| 20260831172112 | 79 | 284 | 3.0 | 5.0 | 0.00 | 0.00 | 0.00 | 32 | 1015.5 |
| 20260831171112 | 80 | 292 | 4.0 | 7.0 | 0.00 | 0.00 | 0.00 | 32 | 1015.4 |
| 20260831170111 | 81 | 279 | 4.0 | 6.0 | 0.00 | 0.00 | 0.00 | 31 | 1015.5 |
| 20260831165112 | 82 | 293 | 4.0 | 7.0 | 0.00 | 0.00 | 0.00 | 30 | 1015.6 |
| 20260831164112 | 82 | 253 | 7.0 | 13.0 | 0.00 | 0.00 | 0.00 | 28 | 1015.6 |
| 20260831163111 | 83 | 288 | 3.0 | 9.0 | 0.00 | 0.00 | 0.00 | 32 | 1015.8 |
| 20260831162111 | 82 | 253 | 5.0 | 8.0 | 0.00 | 0.00 | 0.00 | 34 | 1015.8 |
| 20260831161111 | 83 | 242 | 6.0 | 8.0 | 0.00 | 0.00 | 0.00 | 32 | 1015.8 |
| 20260831160111 | 83 | 242 | 5.0 | 7.0 | 0.00 | 0.00 | 0.00 | 31 | 1015.9 |
| 20260831155111 | 84 | 281 | 5.0 | 7.0 | 0.00 | 0.00 | 0.00 | 29 | 1016.2 |
| 20260831154111 | 85 | 239 | 8.0 | 12.0 | 0.00 | 0.00 | 0.00 | 29 | 1016.0 |
| 20260831153111 | 85 | 256 | 6.0 | 10.0 | 0.00 | 0.00 | 0.00 | 30 | 1016.0 |
| 20260831152112 | 85 | 261 | 7.0 | 14.0 | 0.00 | 0.00 | 0.00 | 29 | 1016.0 |
| 20260831151111 | 85 | 250 | 9.0 | 17.0 | 0.00 | 0.00 | 0.00 | 30 | 1016.2 |
| 20260831150111 | 85 | 274 | 10.0 | 18.0 | 0.00 | 0.00 | 0.00 | 28 | 1016.1 |
| 20260831145111 | 86 | 215 | 5.0 | 8.0 | 0.00 | 0.00 | 0.00 | 31 | 1016.3 |
| 20260831144111 | 86 | 213 | 5.0 | 7.0 | 0.00 | 0.00 | 0.00 | 32 | 1016.3 |